Time,TemperatureF,DewpointF,PressureIn,WindDirection,WindDirectionDegrees,WindSpeedMPH,WindSpeedGustMPH,Humidity,HourlyPrecipIn,Conditions,Clouds,dailyrainin,SoftwareType,DateUTC
2013-04-01 00:09:00,35.2,32.3,30.03,WSW,242,1.0,8.0,89,0.00,CLR,,0.00,WeatherDisplay:10.37,2013-04-01 07:09:00,
2013-04-01 00:24:00,34.5,31.3,30.03,WSW,257,0.0,0.0,88,0.00,CLR,,0.00,WeatherDisplay:10.37,2013-04-01 07:24:00,
2013-04-01 00:29:00,34.2,31.0,30.03,NW,306,1.0,4.0,88,0.00,CLR,,0.00,WeatherDisplay:10.37,2013-04-01 07:29:00,
2013-04-01 00:34:00,34.2,31.0,30.03,NW,304,0.0,4.0,88,0.00,CLR,,0.00,WeatherDisplay:10.37,2013-04-01 07:34:00,
2013-04-01 00:39:00,34.3,30.9,30.03,WSW,253,1.0,6.0,87,0.00,CLR,,0.00,WeatherDisplay:10.37,2013-04-01 07:39:00,
2013-04-01 00:44:00,34.3,30.3,30.03,West,259,3.0,8.0,85,0.00,CLR,,0.00,WeatherDisplay:10.37,2013-04-01 07:44:00,
2013-04-01 00:49:00,34.4,29.5,30.03,West,274,3.0,9.0,82,0.00,CLR,,0.00,WeatherDisplay:10.37,2013-04-01 07:49:00,
2013-04-01 00:54:00,34.3,29.1,30.03,West,259,2.0,6.0,81,0.00,CLR,,0.00,WeatherDisplay:10.37,2013-04-01 07:54:00,
2013-04-01 00:59:00,34.2,28.6,30.03,West,263,0.0,6.0,80,0.00,CLR,,0.00,WeatherDisplay:10.37,2013-04-01 07:59:00,
2013-04-01 01:04:00,33.7,28.2,30.03,WNW,296,0.0,0.0,80,0.00,CLR,,0.00,WeatherDisplay:10.37,2013-04-01 08:04:00,
2013-04-01 01:09:00,33.2,27.7,30.03,NW,305,0.0,0.0,80,0.00,CLR,,0.00,WeatherDisplay:10.37,2013-04-01 08:09:00,
2013-04-01 01:19:00,32.8,27.3,30.03,SW,231,0.0,2.0,80,0.00,CLR,,0.00,WeatherDisplay:10.37,2013-04-01 08:19:00,
2013-04-01 01:24:00,32.5,27.1,30.03,South,174,0.0,0.0,80,0.00,CLR,,0.00,WeatherDisplay:10.37,2013-04-01 08:24:00,
2013-04-01 01:29:00,32.4,26.6,30.03,South,182,0.0,3.0,79,0.00,CLR,,0.00,WeatherDisplay:10.37,2013-04-01 08:29:00,
2013-04-01 01:34:00,32.5,26.7,30.03,West,269,0.0,3.0,79,0.00,CLR,,0.00,WeatherDisplay:10.37,2013-04-01 08:34:00,
2013-04-01 01:39:00,32.4,26.6,30.03,West,271,0.0,0.0,79,0.00,CLR,,0.00,WeatherDisplay:10.37,2013-04-01 08:39:00,
2013-04-01 01:44:00,32.2,26.1,30.03,West,278,0.0,0.0,78,0.00,CLR,,0.00,WeatherDisplay:10.37,2013-04-01 08:44:00,
2013-04-01 01:49:00,32.1,26.0,30.03,WNW,287,0.0,0.0,78,0.00,CLR,,0.00,WeatherDisplay:10.37,2013-04-01 08:49:00,
2013-04-01 01:54:00,31.8,25.7,30.03,WNW,287,0.0,0.0,78,0.00,CLR,,0.00,WeatherDisplay:10.37,2013-04-01 08:54:00,
2013-04-01 01:59:00,31.8,25.4,30.03,WNW,287,0.0,0.0,77,0.00,CLR,,0.00,WeatherDisplay:10.37,2013-04-01 08:59:00,
2013-04-01 02:04:00,31.6,25.3,30.03,WNW,289,0.0,0.0,77,0.00,CLR,,0.00,WeatherDisplay:10.37,2013-04-01 09:04:00,
2013-04-01 02:09:00,31.8,25.1,30.03,NW,323,0.0,0.0,76,0.00,CLR,,0.00,WeatherDisplay:10.37,2013-04-01 09:09:00,
2013-04-01 02:19:00,31.7,24.3,30.03,NNW,348,0.0,0.0,74,0.00,CLR,,0.00,WeatherDisplay:10.37,2013-04-01 09:19:00,
2013-04-01 02:24:00,31.8,24.5,30.03,NNW,348,0.0,0.0,74,0.00,CLR,,0.00,WeatherDisplay:10.37,2013-04-01 09:24:00,
2013-04-01 02:29:00,31.6,24.0,30.03,NNW,348,0.0,0.0,73,0.00,CLR,,0.00,WeatherDisplay:10.37,2013-04-01 09:29:00,
2013-04-01 02:34:00,31.5,23.1,30.03,NNW,348,0.0,0.0,71,0.00,CLR,,0.00,WeatherDisplay:10.37,2013-04-01 09:34:00,
2013-04-01 02:39:00,31.5,22.8,30.03,NNW,348,0.0,0.0,70,0.00,CLR,,0.00,WeatherDisplay:10.37,2013-04-01 09:39:00,
2013-04-01 02:44:00,31.3,22.3,30.03,NNW,348,0.0,0.0,69,0.00,CLR,,0.00,WeatherDisplay:10.37,2013-04-01 09:44:00,
2013-04-01 02:54:00,31.1,21.1,30.03,West,279,0.0,0.0,66,0.00,CLR,,0.00,WeatherDisplay:10.37,2013-04-01 09:54:00,
2013-04-01 02:59:00,31.1,20.7,30.03,WSW,239,0.0,0.0,65,0.00,CLR,,0.00,WeatherDisplay:10.37,2013-04-01 09:59:00,
2013-04-01 03:04:00,31.1,20.0,30.03,SW,235,0.0,0.0,63,0.00,CLR,,0.00,WeatherDisplay:10.37,2013-04-01 10:04:00,
2013-04-01 03:09:00,30.9,18.7,30.03,SW,236,0.0,0.0,60,0.00,CLR,,0.00,WeatherDisplay:10.37,2013-04-01 10:09:00,
2013-04-01 03:14:00,31.1,17.6,30.03,SW,236,0.0,0.0,57,0.00,CLR,,0.00,WeatherDisplay:10.37,2013-04-01 10:14:00,
2013-04-01 03:29:00,31.3,16.5,30.03,NNW,344,0.0,0.0,54,0.00,CLR,,0.00,WeatherDisplay:10.37,2013-04-01 10:29:00,
2013-04-01 03:34:00,31.5,16.3,30.03,NNW,344,0.0,0.0,53,0.00,CLR,,0.00,WeatherDisplay:10.37,2013-04-01 10:34:00,
2013-04-01 03:39:00,31.3,16.1,30.03,NNW,343,0.0,0.0,53,0.00,CLR,,0.00,WeatherDisplay:10.37,2013-04-01 10:39:00,
2013-04-01 03:44:00,31.1,15.5,30.03,NNW,343,0.0,0.0,52,0.00,CLR,,0.00,WeatherDisplay:10.37,2013-04-01 10:44:00,
2013-04-01 03:49:00,31.1,15.5,30.03,NNW,343,0.0,0.0,52,0.00,CLR,,0.00,WeatherDisplay:10.37,2013-04-01 10:49:00,
2013-04-01 03:54:00,31.1,15.1,30.03,NNW,343,0.0,0.0,51,0.00,CLR,,0.00,WeatherDisplay:10.37,2013-04-01 10:54:00,
2013-04-01 03:59:00,31.4,15.4,30.03,West,281,0.0,0.0,51,0.00,CLR,,0.00,WeatherDisplay:10.37,2013-04-01 10:59:00,
2013-04-01 04:04:00,31.5,15.9,30.03,WSW,240,2.0,5.0,52,0.00,CLR,,0.00,WeatherDisplay:10.37,2013-04-01 11:04:00,
2013-04-01 04:09:00,31.7,15.6,30.03,WSW,253,0.0,5.0,51,0.00,CLR,,0.00,WeatherDisplay:10.37,2013-04-01 11:09:00,
2013-04-01 04:14:00,31.8,16.2,30.03,WSW,247,0.0,4.0,52,0.00,CLR,,0.00,WeatherDisplay:10.37,2013-04-01 11:14:00,
2013-04-01 04:19:00,31.8,16.2,30.03,WSW,239,1.0,4.0,52,0.00,CLR,,0.00,WeatherDisplay:10.37,2013-04-01 11:19:00,
2013-04-01 04:24:00,32.0,16.8,30.03,WSW,241,0.0,4.0,53,0.00,CLR,,0.00,WeatherDisplay:10.37,2013-04-01 11:24:00,
2013-04-01 04:29:00,31.6,16.0,30.03,WSW,237,0.0,0.0,52,0.00,CLR,,0.00,WeatherDisplay:10.37,2013-04-01 11:29:00,
2013-04-01 04:34:00,31.1,15.5,30.03,SW,233,0.0,0.0,52,0.00,CLR,,0.00,WeatherDisplay:10.37,2013-04-01 11:34:00,
2013-04-01 04:39:00,30.7,15.6,30.03,SW,233,0.0,0.0,53,0.00,CLR,,0.00,WeatherDisplay:10.37,2013-04-01 11:39:00,
2013-04-01 04:44:00,30.6,15.9,30.03,SW,233,0.0,0.0,54,0.00,CLR,,0.00,WeatherDisplay:10.37,2013-04-01 11:44:00,
2013-04-01 04:49:00,30.6,16.3,30.03,SW,233,0.0,0.0,55,0.00,CLR,,0.00,WeatherDisplay:10.37,2013-04-01 11:49:00,
2013-04-01 04:54:00,30.6,16.7,30.03,SW,233,0.0,0.0,56,0.00,CLR,,0.00,WeatherDisplay:10.37,2013-04-01 11:54:00,
2013-04-01 04:59:00,30.4,16.5,30.03,SW,233,0.0,0.0,56,0.00,CLR,,0.00,WeatherDisplay:10.37,2013-04-01 11:59:00,
2013-04-01 05:04:00,30.4,16.5,30.03,SW,233,0.0,0.0,56,0.00,CLR,,0.00,WeatherDisplay:10.37,2013-04-01 12:04:00,
2013-04-01 05:09:00,30.4,16.5,30.03,SW,233,0.0,0.0,56,0.00,CLR,,0.00,WeatherDisplay:10.37,2013-04-01 12:09:00,
2013-04-01 05:14:00,30.2,16.8,30.03,SW,233,0.0,0.0,57,0.00,CLR,,0.00,WeatherDisplay:10.37,2013-04-01 12:14:00,
2013-04-01 05:19:00,30.2,16.7,30.03,SW,233,0.0,0.0,57,0.00,CLR,,0.00,WeatherDisplay:10.37,2013-04-01 12:19:00,
2013-04-01 05:24:00,29.8,16.4,30.03,SW,234,0.0,0.0,57,0.00,CLR,,0.00,WeatherDisplay:10.37,2013-04-01 12:24:00,
2013-04-01 05:29:00,30.0,17.0,30.03,WSW,246,2.0,5.0,58,0.00,CLR,,0.00,WeatherDisplay:10.37,2013-04-01 12:29:00,
2013-04-01 05:34:00,30.4,16.9,30.03,WSW,250,0.0,0.0,57,0.00,CLR,,0.00,WeatherDisplay:10.37,2013-04-01 12:34:00,
2013-04-01 05:39:00,30.6,17.1,30.03,NW,317,0.0,4.0,57,0.00,CLR,,0.00,WeatherDisplay:10.37,2013-04-01 12:39:00,
2013-04-01 05:44:00,30.7,17.3,30.03,North,0,0.0,0.0,57,0.00,CLR,,0.00,WeatherDisplay:10.37,2013-04-01 12:44:00,
2013-04-01 05:49:00,30.6,16.7,30.03,North,0,0.0,0.0,56,0.00,CLR,,0.00,WeatherDisplay:10.37,2013-04-01 12:49:00,
2013-04-01 05:54:00,30.4,16.5,30.03,North,0,0.0,0.0,56,0.00,CLR,,0.00,WeatherDisplay:10.37,2013-04-01 12:54:00,
2013-04-01 05:59:00,30.2,16.4,30.03,North,0,0.0,0.0,56,0.00,CLR,,0.00,WeatherDisplay:10.37,2013-04-01 12:59:00,
2013-04-01 06:04:00,30.2,16.4,30.03,North,0,0.0,0.0,56,0.00,CLR,,0.00,WeatherDisplay:10.37,2013-04-01 13:04:00,
2013-04-01 06:14:00,30.7,17.3,30.03,SW,229,0.0,6.0,57,0.00,CLR,,0.00,WeatherDisplay:10.37,2013-04-01 13:14:00,
2013-04-01 06:19:00,30.7,17.3,30.03,WSW,237,0.0,6.0,57,0.00,CLR,,0.00,WeatherDisplay:10.37,2013-04-01 13:19:00,
2013-04-01 06:24:00,30.5,16.6,30.03,WSW,250,0.0,8.0,56,0.00,CLR,,0.00,WeatherDisplay:10.37,2013-04-01 13:24:00,
2013-04-01 06:29:00,30.6,16.7,30.03,WSW,246,2.0,8.0,56,0.00,CLR,,0.00,WeatherDisplay:10.37,2013-04-01 13:29:00,
2013-04-01 06:39:00,30.6,15.9,30.03,WSW,255,0.0,5.0,54,0.00,CLR,,0.00,WeatherDisplay:10.37,2013-04-01 13:39:00,
2013-04-01 06:44:00,30.6,15.4,30.03,West,259,0.0,0.0,53,0.00,CLR,,0.00,WeatherDisplay:10.37,2013-04-01 13:44:00,
2013-04-01 06:49:00,30.9,15.8,30.03,WSW,241,0.0,0.0,53,0.00,CLR,,0.00,WeatherDisplay:10.37,2013-04-01 13:49:00,
2013-04-01 06:54:00,31.1,15.5,30.03,WSW,239,0.0,0.0,52,0.00,CLR,,0.00,WeatherDisplay:10.37,2013-04-01 13:54:00,
2013-04-01 06:59:00,31.1,15.1,30.03,WSW,240,0.0,0.0,51,0.00,CLR,,0.00,WeatherDisplay:10.37,2013-04-01 13:59:00,
2013-04-01 07:04:00,31.3,15.2,30.03,WSW,240,0.0,0.0,51,0.00,CLR,,0.00,WeatherDisplay:10.37,2013-04-01 14:04:00,
2013-04-01 07:09:00,31.7,15.6,30.03,WSW,242,0.0,0.0,51,0.00,CLR,,0.00,WeatherDisplay:10.37,2013-04-01 14:09:00,
2013-04-01 07:14:00,32.2,16.5,30.03,WSW,242,0.0,0.0,52,0.00,CLR,,0.00,WeatherDisplay:10.37,2013-04-01 14:14:00,
2013-04-01 07:19:00,32.6,16.9,30.03,WSW,242,0.0,0.0,52,0.00,CLR,,0.00,WeatherDisplay:10.37,2013-04-01 14:19:00,
2013-04-01 07:29:00,33.4,17.7,30.03,WSW,243,0.0,0.0,52,0.00,CLR,,0.00,WeatherDisplay:10.37,2013-04-01 14:29:00,
2013-04-01 07:34:00,33.8,18.0,30.03,WSW,243,0.0,0.0,52,0.00,CLR,,0.00,WeatherDisplay:10.37,2013-04-01 14:34:00,
2013-04-01 07:39:00,34.5,18.2,30.03,SW,236,0.0,0.0,51,0.00,CLR,,0.00,WeatherDisplay:10.37,2013-04-01 14:39:00,
2013-04-01 07:44:00,34.9,17.7,30.03,East,83,0.0,3.0,49,0.00,CLR,,0.00,WeatherDisplay:10.37,2013-04-01 14:44:00,
2013-04-01 07:49:00,35.5,18.2,30.03,ENE,74,0.0,0.0,49,0.00,CLR,,0.00,WeatherDisplay:10.37,2013-04-01 14:49:00,
2013-04-01 07:54:00,36.2,18.4,30.03,ENE,70,0.0,0.0,48,0.00,CLR,,0.00,WeatherDisplay:10.37,2013-04-01 14:54:00,
2013-04-01 08:04:00,37.2,18.8,30.06,ENE,71,0.0,0.0,47,0.00,CLR,,0.00,WeatherDisplay:10.37,2013-04-01 15:04:00,
2013-04-01 08:09:00,37.4,18.5,30.06,ENE,73,0.0,0.0,46,0.00,CLR,,0.00,WeatherDisplay:10.37,2013-04-01 15:09:00,
2013-04-01 08:14:00,37.6,18.1,30.06,East,89,0.0,0.0,45,0.00,CLR,,0.00,WeatherDisplay:10.37,2013-04-01 15:14:00,
2013-04-01 08:19:00,37.9,17.3,30.06,ESE,116,0.0,0.0,43,0.00,CLR,,0.00,WeatherDisplay:10.37,2013-04-01 15:19:00,
2013-04-01 08:24:00,38.1,17.6,30.06,SW,230,0.0,3.0,43,0.00,CLR,,0.00,WeatherDisplay:10.37,2013-04-01 15:24:00,
2013-04-01 08:29:00,38.5,17.9,30.06,SW,232,0.0,0.0,43,0.00,CLR,,0.00,WeatherDisplay:10.37,2013-04-01 15:29:00,
2013-04-01 08:34:00,38.8,17.7,30.06,South,184,0.0,0.0,42,0.00,CLR,,0.00,WeatherDisplay:10.37,2013-04-01 15:34:00,
2013-04-01 08:44:00,40.3,19.0,30.06,ENE,70,0.0,0.0,42,0.00,CLR,,0.00,WeatherDisplay:10.37,2013-04-01 15:44:00,
2013-04-01 08:49:00,41.1,19.2,30.06,ENE,66,0.0,0.0,41,0.00,CLR,,0.00,WeatherDisplay:10.37,2013-04-01 15:49:00,
2013-04-01 08:54:00,42.4,20.3,30.06,ENE,75,0.0,0.0,41,0.00,CLR,,0.00,WeatherDisplay:10.37,2013-04-01 15:54:00,
2013-04-01 08:59:00,43.8,21.0,30.06,East,90,0.0,0.0,40,0.00,CLR,,0.00,WeatherDisplay:10.37,2013-04-01 15:59:00,
2013-04-01 09:09:00,46.4,22.1,30.06,SE,138,0.0,3.0,38,0.00,CLR,,0.00,WeatherDisplay:10.37,2013-04-01 16:09:00,
2013-04-01 09:14:00,47.7,23.3,30.06,SSE,154,0.0,3.0,38,0.00,CLR,,0.00,WeatherDisplay:10.37,2013-04-01 16:14:00,
2013-04-01 09:19:00,48.4,23.3,30.06,SE,131,0.0,0.0,37,0.00,CLR,,0.00,WeatherDisplay:10.37,2013-04-01 16:19:00,
2013-04-01 09:24:00,48.8,23.6,30.06,ESE,120,2.0,4.0,37,0.00,CLR,,0.00,WeatherDisplay:10.37,2013-04-01 16:24:00,
2013-04-01 09:29:00,50.1,24.1,30.06,SE,142,0.0,3.0,36,0.00,CLR,,0.00,WeatherDisplay:10.37,2013-04-01 16:29:00,
2013-04-01 09:34:00,51.0,22.9,30.06,SE,135,0.0,3.0,33,0.00,CLR,,0.00,WeatherDisplay:10.37,2013-04-01 16:34:00,
2013-04-01 09:39:00,52.0,19.8,30.06,SSW,203,3.0,6.0,28,0.00,CLR,,0.00,WeatherDisplay:10.37,2013-04-01 16:39:00,
2013-04-01 09:44:00,52.4,18.5,30.06,West,275,1.0,8.0,26,0.00,CLR,,0.00,WeatherDisplay:10.37,2013-04-01 16:44:00,
2013-04-01 09:49:00,52.8,18.8,30.06,NW,306,2.0,6.0,26,0.00,CLR,,0.00,WeatherDisplay:10.37,2013-04-01 16:49:00,
2013-04-01 09:54:00,53.1,16.2,30.06,NW,305,1.0,6.0,23,0.00,CLR,,0.00,WeatherDisplay:10.37,2013-04-01 16:54:00,
2013-04-01 09:59:00,54.0,18.9,30.06,WNW,300,3.0,6.0,25,0.00,CLR,,0.00,WeatherDisplay:10.37,2013-04-01 16:59:00,
2013-04-01 10:04:00,54.9,19.7,30.06,NW,304,3.0,8.0,25,0.00,CLR,,0.00,WeatherDisplay:10.37,2013-04-01 17:04:00,
2013-04-01 10:09:00,55.0,17.8,30.06,NW,308,1.0,8.0,23,0.00,CLR,,0.00,WeatherDisplay:10.37,2013-04-01 17:09:00,
2013-04-01 10:14:00,55.0,17.8,30.06,NW,309,5.0,8.0,23,0.00,CLR,,0.00,WeatherDisplay:10.37,2013-04-01 17:14:00,
2013-04-01 10:19:00,55.5,17.2,30.06,NW,307,0.0,6.0,22,0.00,CLR,,0.00,WeatherDisplay:10.37,2013-04-01 17:19:00,
2013-04-01 10:24:00,55.9,17.6,30.06,NW,310,3.0,8.0,22,0.00,CLR,,0.00,WeatherDisplay:10.37,2013-04-01 17:24:00,
2013-04-01 10:29:00,56.5,17.0,30.06,NW,315,3.0,8.0,21,0.00,CLR,,0.00,WeatherDisplay:10.37,2013-04-01 17:29:00,
2013-04-01 10:34:00,56.5,18.0,30.06,WNW,288,3.0,8.0,22,0.00,CLR,,0.00,WeatherDisplay:10.37,2013-04-01 17:34:00,
2013-04-01 10:39:00,56.0,15.4,30.06,West,259,6.0,10.0,20,0.00,CLR,,0.00,WeatherDisplay:10.37,2013-04-01 17:39:00,
2013-04-01 10:44:00,54.9,14.5,30.06,WNW,290,7.0,11.0,20,0.00,CLR,,0.00,WeatherDisplay:10.37,2013-04-01 17:44:00,
2013-04-01 10:49:00,54.7,14.3,30.06,NW,307,5.0,10.0,20,0.00,CLR,,0.00,WeatherDisplay:10.37,2013-04-01 17:49:00,
2013-04-01 10:54:00,54.5,17.4,30.06,WNW,293,5.0,9.0,23,0.00,CLR,,0.00,WeatherDisplay:10.37,2013-04-01 17:54:00,
2013-04-01 10:59:00,54.7,14.3,30.06,WNW,287,3.0,12.0,20,0.00,CLR,,0.00,WeatherDisplay:10.37,2013-04-01 17:59:00,
2013-04-01 11:04:00,54.7,14.3,30.09,WNW,290,2.0,8.0,20,0.00,CLR,,0.00,WeatherDisplay:10.37,2013-04-01 18:04:00,
2013-04-01 11:09:00,55.5,15.0,30.09,WNW,284,3.0,8.0,20,0.00,CLR,,0.00,WeatherDisplay:10.37,2013-04-01 18:09:00,
2013-04-01 11:14:00,55.8,15.2,30.09,WNW,290,3.0,8.0,20,0.00,CLR,,0.00,WeatherDisplay:10.37,2013-04-01 18:14:00,
2013-04-01 11:19:00,55.6,15.1,30.09,West,270,6.0,10.0,20,0.00,CLR,,0.00,WeatherDisplay:10.37,2013-04-01 18:19:00,
2013-04-01 11:24:00,55.2,15.9,30.09,West,281,5.0,6.0,21,0.00,CLR,,0.00,WeatherDisplay:10.37,2013-04-01 18:24:00,
2013-04-01 11:29:00,55.4,14.9,30.09,WNW,298,3.0,8.0,20,0.00,CLR,,0.00,WeatherDisplay:10.37,2013-04-01 18:29:00,
2013-04-01 11:34:00,55.8,15.2,30.09,NW,305,5.0,8.0,20,0.00,CLR,,0.00,WeatherDisplay:10.37,2013-04-01 18:34:00,
2013-04-01 11:39:00,55.8,17.4,30.09,WNW,286,6.0,9.0,22,0.00,CLR,,0.00,WeatherDisplay:10.37,2013-04-01 18:39:00,
2013-04-01 11:44:00,55.3,14.9,30.09,WSW,250,5.0,13.0,20,0.00,CLR,,0.00,WeatherDisplay:10.37,2013-04-01 18:44:00,
2013-04-01 11:49:00,55.3,17.0,30.09,WSW,258,3.0,12.0,22,0.00,CLR,,0.00,WeatherDisplay:10.37,2013-04-01 18:49:00,
2013-04-01 11:54:00,55.4,16.1,30.09,West,261,5.0,8.0,21,0.00,CLR,,0.00,WeatherDisplay:10.37,2013-04-01 18:54:00,
2013-04-01 12:04:00,55.8,17.4,30.09,West,269,6.0,10.0,22,0.00,CLR,,0.00,WeatherDisplay:10.37,2013-04-01 19:04:00,
2013-04-01 12:09:00,55.4,17.2,30.09,West,259,5.0,12.0,22,0.00,CLR,,0.00,WeatherDisplay:10.37,2013-04-01 19:09:00,
2013-04-01 12:14:00,55.6,15.1,30.09,WSW,242,1.0,8.0,20,0.00,CLR,,0.00,WeatherDisplay:10.37,2013-04-01 19:14:00,
2013-04-01 12:19:00,55.2,15.9,30.09,WSW,245,6.0,12.0,21,0.00,CLR,,0.00,WeatherDisplay:10.37,2013-04-01 19:19:00,
2013-04-01 12:24:00,54.7,17.6,30.09,West,272,5.0,9.0,23,0.00,CLR,,0.00,WeatherDisplay:10.37,2013-04-01 19:24:00,
2013-04-01 12:29:00,54.9,17.7,30.09,WNW,290,3.0,8.0,23,0.00,CLR,,0.00,WeatherDisplay:10.37,2013-04-01 19:29:00,
2013-04-01 12:34:00,55.6,17.3,30.09,West,276,2.0,9.0,22,0.00,CLR,,0.00,WeatherDisplay:10.37,2013-04-01 19:34:00,
2013-04-01 12:39:00,55.9,17.6,30.09,WSW,250,5.0,12.0,22,0.00,CLR,,0.00,WeatherDisplay:10.37,2013-04-01 19:39:00,
2013-04-01 12:44:00,55.4,17.1,30.09,West,273,5.0,8.0,22,0.00,CLR,,0.00,WeatherDisplay:10.37,2013-04-01 19:44:00,
2013-04-01 12:49:00,54.3,14.0,30.09,WNW,283,6.0,11.0,20,0.00,CLR,,0.00,WeatherDisplay:10.37,2013-04-01 19:49:00,
2013-04-01 12:54:00,53.6,13.4,30.09,WNW,288,3.0,8.0,20,0.00,CLR,,0.00,WeatherDisplay:10.37,2013-04-01 19:54:00,
2013-04-01 12:59:00,54.0,13.7,30.09,WNW,292,3.0,8.0,20,0.00,CLR,,0.00,WeatherDisplay:10.37,2013-04-01 19:59:00,
2013-04-01 13:04:00,54.5,14.2,30.09,WNW,283,5.0,6.0,20,0.00,CLR,,0.00,WeatherDisplay:10.37,2013-04-01 20:04:00,
2013-04-01 13:09:00,54.8,15.6,30.09,WNW,290,2.0,10.0,21,0.00,CLR,,0.00,WeatherDisplay:10.37,2013-04-01 20:09:00,
2013-04-01 13:19:00,55.2,14.7,30.09,WNW,292,3.0,6.0,20,0.00,CLR,,0.00,WeatherDisplay:10.37,2013-04-01 20:19:00,
2013-04-01 13:24:00,55.1,17.9,30.09,WNW,285,5.0,9.0,23,0.00,CLR,,0.00,WeatherDisplay:10.37,2013-04-01 20:24:00,
2013-04-01 13:29:00,55.0,17.9,30.09,West,267,5.0,9.0,23,0.00,CLR,,0.00,WeatherDisplay:10.37,2013-04-01 20:29:00,
2013-04-01 13:39:00,56.2,17.8,30.06,WSW,250,2.0,6.0,22,0.00,CLR,,0.00,WeatherDisplay:10.37,2013-04-01 20:39:00,
2013-04-01 13:44:00,56.5,18.0,30.06,West,276,5.0,8.0,22,0.00,CLR,,0.00,WeatherDisplay:10.37,2013-04-01 20:44:00,
2013-04-01 13:49:00,56.3,17.8,30.06,WNW,302,7.0,10.0,22,0.00,CLR,,0.00,WeatherDisplay:10.37,2013-04-01 20:49:00,
2013-04-01 13:54:00,56.1,17.7,30.06,WNW,286,5.0,9.0,22,0.00,CLR,,0.00,WeatherDisplay:10.37,2013-04-01 20:54:00,
2013-04-01 13:59:00,56.4,17.9,30.06,West,265,3.0,6.0,22,0.00,CLR,,0.00,WeatherDisplay:10.37,2013-04-01 20:59:00,
2013-04-01 14:04:00,56.3,17.9,30.06,WSW,246,5.0,8.0,22,0.00,CLR,,0.00,WeatherDisplay:10.37,2013-04-01 21:04:00,
2013-04-01 14:09:00,56.7,19.3,30.06,West,260,2.0,8.0,23,0.00,CLR,,0.00,WeatherDisplay:10.37,2013-04-01 21:09:00,
2013-04-01 14:14:00,57.0,21.5,30.06,WNW,285,3.0,6.0,25,0.00,CLR,,0.00,WeatherDisplay:10.37,2013-04-01 21:14:00,
2013-04-01 14:19:00,57.5,20.9,30.06,West,268,2.0,7.0,24,0.00,CLR,,0.00,WeatherDisplay:10.37,2013-04-01 21:19:00,
2013-04-01 14:24:00,57.6,21.0,30.06,West,272,5.0,7.0,24,0.00,CLR,,0.00,WeatherDisplay:10.37,2013-04-01 21:24:00,
2013-04-01 14:29:00,57.6,21.0,30.06,West,273,5.0,6.0,24,0.00,CLR,,0.00,WeatherDisplay:10.37,2013-04-01 21:29:00,
2013-04-01 14:34:00,57.2,21.6,30.06,NW,305,2.0,6.0,25,0.00,CLR,,0.00,WeatherDisplay:10.37,2013-04-01 21:34:00,
2013-04-01 14:39:00,57.5,20.9,30.06,WNW,297,2.0,6.0,24,0.00,CLR,,0.00,WeatherDisplay:10.37,2013-04-01 21:39:00,
2013-04-01 14:44:00,57.6,22.0,30.06,West,281,1.0,6.0,25,0.00,CLR,,0.00,WeatherDisplay:10.37,2013-04-01 21:44:00,
2013-04-01 14:49:00,57.9,22.3,30.06,West,273,2.0,7.0,25,0.00,CLR,,0.00,WeatherDisplay:10.37,2013-04-01 21:49:00,
2013-04-01 14:54:00,57.3,21.7,30.06,West,273,1.0,11.0,25,0.00,CLR,,0.00,WeatherDisplay:10.37,2013-04-01 21:54:00,
2013-04-01 14:59:00,57.2,21.6,30.06,West,269,3.0,8.0,25,0.00,CLR,,0.00,WeatherDisplay:10.37,2013-04-01 21:59:00,
2013-04-01 15:04:00,57.0,22.4,30.06,West,272,0.0,6.0,26,0.00,CLR,,0.00,WeatherDisplay:10.37,2013-04-01 22:04:00,
2013-04-01 15:09:00,57.0,27.4,30.06,West,278,3.0,6.0,32,0.00,CLR,,0.00,WeatherDisplay:10.37,2013-04-01 22:09:00,
2013-04-01 15:14:00,57.5,23.7,30.06,WSW,249,2.0,6.0,27,0.00,CLR,,0.00,WeatherDisplay:10.37,2013-04-01 22:14:00,
2013-04-01 15:19:00,57.5,23.8,30.06,WSW,243,6.0,13.0,27,0.00,CLR,,0.00,WeatherDisplay:10.37,2013-04-01 22:19:00,
2013-04-01 15:29:00,56.3,29.0,30.06,WSW,247,1.0,8.0,35,0.00,CLR,,0.00,WeatherDisplay:10.37,2013-04-01 22:29:00,
2013-04-01 15:34:00,56.5,29.8,30.06,SW,234,3.0,6.0,36,0.00,CLR,,0.00,WeatherDisplay:10.37,2013-04-01 22:34:00,
2013-04-01 15:39:00,56.3,29.7,30.06,SW,221,3.0,8.0,36,0.00,CLR,,0.00,WeatherDisplay:10.37,2013-04-01 22:39:00,
2013-04-01 15:44:00,56.1,29.5,30.06,SW,230,5.0,8.0,36,0.00,CLR,,0.00,WeatherDisplay:10.37,2013-04-01 22:44:00,
2013-04-01 15:49:00,56.0,29.4,30.06,SW,222,7.0,8.0,36,0.00,CLR,,0.00,WeatherDisplay:10.37,2013-04-01 22:49:00,
2013-04-01 15:59:00,54.9,29.7,30.06,SSW,212,6.0,8.0,38,0.00,CLR,,0.00,WeatherDisplay:10.37,2013-04-01 22:59:00,
2013-04-01 16:04:00,54.5,30.0,30.06,SW,222,0.0,6.0,39,0.00,CLR,,0.00,WeatherDisplay:10.37,2013-04-01 23:04:00,
2013-04-01 16:09:00,54.1,29.7,30.06,SW,225,0.0,6.0,39,0.00,CLR,,0.00,WeatherDisplay:10.37,2013-04-01 23:09:00,
2013-04-01 16:14:00,53.8,28.1,30.06,SW,228,2.0,6.0,37,0.00,CLR,,0.00,WeatherDisplay:10.37,2013-04-01 23:14:00,
2013-04-01 16:19:00,54.2,27.8,30.03,SSW,210,1.0,4.0,36,0.00,CLR,,0.00,WeatherDisplay:10.37,2013-04-01 23:19:00,
2013-04-01 16:29:00,54.5,22.0,30.03,West,281,2.0,9.0,28,0.00,CLR,,0.00,WeatherDisplay:10.37,2013-04-01 23:29:00,
2013-04-01 16:34:00,54.3,21.9,30.03,WNW,293,3.0,6.0,28,0.00,CLR,,0.00,WeatherDisplay:10.37,2013-04-01 23:34:00,
2013-04-01 16:39:00,53.8,21.5,30.03,WNW,288,2.0,6.0,28,0.00,CLR,,0.00,WeatherDisplay:10.37,2013-04-01 23:39:00,
2013-04-01 16:44:00,53.6,25.2,30.03,WNW,287,3.0,6.0,33,0.00,CLR,,0.00,WeatherDisplay:10.37,2013-04-01 23:44:00,
2013-04-01 16:49:00,53.2,22.6,30.03,WSW,257,0.0,4.0,30,0.00,CLR,,0.00,WeatherDisplay:10.37,2013-04-01 23:49:00,
2013-04-01 16:54:00,52.8,23.7,30.03,WSW,243,3.0,6.0,32,0.00,CLR,,0.00,WeatherDisplay:10.37,2013-04-01 23:54:00,
2013-04-01 16:59:00,52.4,24.8,30.03,SW,235,1.0,7.0,34,0.00,CLR,,0.00,WeatherDisplay:10.37,2013-04-01 23:59:00,
2013-04-01 17:04:00,52.1,22.3,30.03,West,267,5.0,8.0,31,0.00,CLR,,0.00,WeatherDisplay:10.37,2013-04-02 00:04:00,
2013-04-01 17:09:00,51.6,24.1,30.03,West,264,3.0,4.0,34,0.00,CLR,,0.00,WeatherDisplay:10.37,2013-04-02 00:09:00,
2013-04-01 17:14:00,51.4,23.3,30.03,West,281,2.0,8.0,33,0.00,CLR,,0.00,WeatherDisplay:10.37,2013-04-02 00:14:00,
2013-04-01 17:19:00,51.2,23.7,30.03,WNW,293,5.0,8.0,34,0.00,CLR,,0.00,WeatherDisplay:10.37,2013-04-02 00:19:00,
2013-04-01 17:24:00,50.7,24.0,30.03,WNW,297,5.0,8.0,35,0.00,CLR,,0.00,WeatherDisplay:10.37,2013-04-02 00:24:00,
2013-04-01 17:29:00,50.2,24.3,30.03,WNW,293,3.0,6.0,36,0.00,CLR,,0.00,WeatherDisplay:10.37,2013-04-02 00:29:00,
2013-04-01 17:39:00,49.8,24.5,30.03,NW,304,5.0,8.0,37,0.00,CLR,,0.00,WeatherDisplay:10.37,2013-04-02 00:39:00,
2013-04-01 17:49:00,48.9,23.8,30.03,WNW,292,5.0,6.0,37,0.00,CLR,,0.00,WeatherDisplay:10.37,2013-04-02 00:49:00,
2013-04-01 17:59:00,48.0,23.0,30.03,WSW,253,2.0,6.0,37,0.00,CLR,,0.00,WeatherDisplay:10.37,2013-04-02 00:59:00,
2013-04-01 18:04:00,47.7,22.6,30.03,West,277,1.0,6.0,37,0.00,CLR,,0.00,WeatherDisplay:10.37,2013-04-02 01:04:00,
2013-04-01 18:09:00,47.3,22.9,30.03,WNW,282,0.0,6.0,38,0.00,CLR,,0.00,WeatherDisplay:10.37,2013-04-02 01:09:00,
2013-04-01 18:14:00,47.1,22.8,30.03,West,276,0.0,6.0,38,0.00,CLR,,0.00,WeatherDisplay:10.37,2013-04-02 01:14:00,
2013-04-01 18:19:00,46.9,23.2,30.03,West,262,2.0,5.0,39,0.00,CLR,,0.00,WeatherDisplay:10.37,2013-04-02 01:19:00,
2013-04-01 18:24:00,46.6,22.9,30.03,West,262,0.0,5.0,39,0.00,CLR,,0.00,WeatherDisplay:10.37,2013-04-02 01:24:00,
2013-04-01 18:34:00,46.0,23.0,30.03,WNW,283,1.0,6.0,40,0.00,CLR,,0.00,WeatherDisplay:10.37,2013-04-02 01:34:00,
2013-04-01 18:39:00,45.4,25.3,30.03,WNW,283,0.0,3.0,45,0.00,CLR,,0.00,WeatherDisplay:10.37,2013-04-02 01:39:00,
2013-04-01 18:44:00,44.9,26.4,30.03,West,271,1.0,4.0,48,0.00,CLR,,0.00,WeatherDisplay:10.37,2013-04-02 01:44:00,
2013-04-01 18:49:00,44.4,24.9,30.03,West,279,2.0,5.0,46,0.00,CLR,,0.00,WeatherDisplay:10.37,2013-04-02 01:49:00,
2013-04-01 18:54:00,44.0,25.0,30.03,WNW,287,0.0,7.0,47,0.00,CLR,,0.00,WeatherDisplay:10.37,2013-04-02 01:54:00,
2013-04-01 19:04:00,42.8,25.4,30.03,NW,304,2.0,5.0,50,0.00,CLR,,0.00,WeatherDisplay:10.37,2013-04-02 02:04:00,
2013-04-01 19:09:00,42.4,26.0,30.03,WNW,291,0.0,5.0,52,0.00,CLR,,0.00,WeatherDisplay:10.37,2013-04-02 02:09:00,
2013-04-01 19:14:00,42.1,26.2,30.03,WNW,287,2.0,6.0,53,0.00,CLR,,0.00,WeatherDisplay:10.37,2013-04-02 02:14:00,
2013-04-01 19:24:00,41.5,27.0,30.06,West,270,1.0,4.0,56,0.00,CLR,,0.00,WeatherDisplay:10.37,2013-04-02 02:24:00,
2013-04-01 19:29:00,41.1,27.0,30.06,West,272,0.0,0.0,57,0.00,CLR,,0.00,WeatherDisplay:10.37,2013-04-02 02:29:00,
2013-04-01 19:34:00,40.6,27.8,30.03,WNW,294,0.0,3.0,60,0.00,CLR,,0.00,WeatherDisplay:10.37,2013-04-02 02:34:00,
2013-04-01 19:39:00,40.5,28.1,30.03,WNW,299,1.0,4.0,61,0.00,CLR,,0.00,WeatherDisplay:10.37,2013-04-02 02:39:00,
2013-04-01 19:44:00,40.3,28.3,30.03,WNW,290,0.0,3.0,62,0.00,CLR,,0.00,WeatherDisplay:10.37,2013-04-02 02:44:00,
2013-04-01 19:49:00,39.9,28.7,30.03,West,279,0.0,0.0,64,0.00,CLR,,0.00,WeatherDisplay:10.37,2013-04-02 02:49:00,
2013-04-01 19:54:00,39.7,28.5,30.03,West,266,0.0,4.0,64,0.00,CLR,,0.00,WeatherDisplay:10.37,2013-04-02 02:54:00,
2013-04-01 19:59:00,39.6,28.8,30.03,West,261,0.0,2.0,65,0.00,CLR,,0.00,WeatherDisplay:10.37,2013-04-02 02:59:00,
2013-04-01 20:04:00,39.4,29.0,30.03,West,264,0.0,0.0,66,0.00,CLR,,0.00,WeatherDisplay:10.37,2013-04-02 03:04:00,
2013-04-01 20:09:00,39.2,29.6,30.03,West,277,0.0,5.0,68,0.00,CLR,,0.00,WeatherDisplay:10.37,2013-04-02 03:09:00,
2013-04-01 20:14:00,39.4,30.4,30.03,WNW,291,1.0,4.0,70,0.00,CLR,,0.00,WeatherDisplay:10.37,2013-04-02 03:14:00,
2013-04-01 20:19:00,39.4,30.5,30.06,WNW,292,2.0,5.0,70,0.00,CLR,,0.00,WeatherDisplay:10.37,2013-04-02 03:19:00,
2013-04-01 20:24:00,39.6,31.3,30.06,NW,314,2.0,6.0,72,0.00,CLR,,0.00,WeatherDisplay:10.37,2013-04-02 03:24:00,
2013-04-01 20:29:00,39.6,31.6,30.06,NW,312,1.0,6.0,73,0.00,CLR,,0.00,WeatherDisplay:10.37,2013-04-02 03:29:00,
2013-04-01 20:39:00,39.5,31.9,30.06,WNW,288,3.0,6.0,74,0.00,CLR,,0.00,WeatherDisplay:10.37,2013-04-02 03:39:00,
2013-04-01 20:44:00,39.2,31.6,30.06,WNW,293,1.0,6.0,74,0.00,CLR,,0.00,WeatherDisplay:10.37,2013-04-02 03:44:00,
2013-04-01 20:49:00,39.1,31.9,30.06,NW,310,3.0,6.0,75,0.00,CLR,,0.00,WeatherDisplay:10.37,2013-04-02 03:49:00,
2013-04-01 20:54:00,38.8,31.9,30.06,NW,306,1.0,4.0,76,0.00,CLR,,0.00,WeatherDisplay:10.37,2013-04-02 03:54:00,
2013-04-01 20:59:00,38.4,31.5,30.06,WNW,303,1.0,5.0,76,0.00,CLR,,0.00,WeatherDisplay:10.37,2013-04-02 03:59:00,
2013-04-01 21:04:00,37.9,31.0,30.06,WNW,294,2.0,4.0,76,0.00,CLR,,0.00,WeatherDisplay:10.37,2013-04-02 04:04:00,
2013-04-01 21:09:00,37.8,31.2,30.06,NW,306,0.0,4.0,77,0.00,CLR,,0.00,WeatherDisplay:10.37,2013-04-02 04:09:00,
2013-04-01 21:19:00,37.4,30.5,30.03,WNW,301,0.0,6.0,76,0.00,CLR,,0.00,WeatherDisplay:10.37,2013-04-02 04:19:00,
2013-04-01 21:24:00,37.0,30.2,30.03,WNW,301,0.0,5.0,76,0.00,CLR,,0.00,WeatherDisplay:10.37,2013-04-02 04:24:00,
2013-04-01 21:29:00,36.9,30.0,30.03,NW,313,0.0,0.0,76,0.00,CLR,,0.00,WeatherDisplay:10.37,2013-04-02 04:29:00,
2013-04-01 21:34:00,36.7,29.5,30.06,NW,319,0.0,4.0,75,0.00,CLR,,0.00,WeatherDisplay:10.37,2013-04-02 04:34:00,
2013-04-01 21:39:00,36.5,29.3,30.06,WNW,289,0.0,3.0,75,0.00,CLR,,0.00,WeatherDisplay:10.37,2013-04-02 04:39:00,
2013-04-01 21:44:00,36.4,29.3,30.06,WNW,291,2.0,6.0,75,0.00,CLR,,0.00,WeatherDisplay:10.37,2013-04-02 04:44:00,
2013-04-01 21:49:00,36.5,29.0,30.06,NW,310,2.0,8.0,74,0.00,CLR,,0.00,WeatherDisplay:10.37,2013-04-02 04:49:00,
2013-04-01 21:54:00,36.6,28.7,30.06,NW,305,0.0,4.0,73,0.00,CLR,,0.00,WeatherDisplay:10.37,2013-04-02 04:54:00,
2013-04-01 21:59:00,36.3,28.2,30.06,WNW,296,0.0,4.0,72,0.00,CLR,,0.00,WeatherDisplay:10.37,2013-04-02 04:59:00,
2013-04-01 22:04:00,36.3,28.2,30.06,WNW,292,0.0,3.0,72,0.00,CLR,,0.00,WeatherDisplay:10.37,2013-04-02 05:04:00,
2013-04-01 22:09:00,36.1,28.0,30.06,West,271,0.0,3.0,72,0.00,CLR,,0.00,WeatherDisplay:10.37,2013-04-02 05:09:00,
2013-04-01 22:14:00,36.1,28.3,30.06,WNW,284,0.0,3.0,73,0.00,CLR,,0.00,WeatherDisplay:10.37,2013-04-02 05:14:00,
2013-04-01 22:19:00,35.9,28.1,30.06,NW,309,0.0,4.0,73,0.00,CLR,,0.00,WeatherDisplay:10.37,2013-04-02 05:19:00,
2013-04-01 22:24:00,35.6,27.8,30.06,NW,321,2.0,4.0,73,0.00,CLR,,0.00,WeatherDisplay:10.37,2013-04-02 05:24:00,
2013-04-01 22:29:00,35.6,27.8,30.06,NW,326,0.0,3.0,73,0.00,CLR,,0.00,WeatherDisplay:10.37,2013-04-02 05:29:00,
2013-04-01 22:34:00,35.3,27.9,30.06,NW,318,0.0,0.0,74,0.00,CLR,,0.00,WeatherDisplay:10.37,2013-04-02 05:34:00,
2013-04-01 22:39:00,35.2,28.4,30.06,NW,317,2.0,5.0,76,0.00,CLR,,0.00,WeatherDisplay:10.37,2013-04-02 05:39:00,
2013-04-01 22:44:00,35.2,28.3,30.06,NW,325,0.0,0.0,76,0.00,CLR,,0.00,WeatherDisplay:10.37,2013-04-02 05:44:00,
2013-04-01 22:49:00,34.9,28.1,30.06,NW,310,0.0,0.0,76,0.00,CLR,,0.00,WeatherDisplay:10.37,2013-04-02 05:49:00,
2013-04-01 22:54:00,34.6,27.8,30.06,WNW,301,0.0,0.0,76,0.00,CLR,,0.00,WeatherDisplay:10.37,2013-04-02 05:54:00,
2013-04-01 22:59:00,34.5,27.7,30.06,NW,311,0.0,4.0,76,0.00,CLR,,0.00,WeatherDisplay:10.37,2013-04-02 05:59:00,
2013-04-01 23:04:00,34.2,27.8,30.06,NW,312,0.0,4.0,77,0.00,CLR,,0.00,WeatherDisplay:10.37,2013-04-02 06:04:00,
2013-04-01 23:09:00,34.0,27.5,30.06,NW,318,0.0,0.0,77,0.00,CLR,,0.00,WeatherDisplay:10.37,2013-04-02 06:09:00,
2013-04-01 23:14:00,34.2,28.0,30.06,NW,324,0.0,0.0,78,0.00,CLR,,0.00,WeatherDisplay:10.37,2013-04-02 06:14:00,
2013-04-01 23:19:00,34.3,28.2,30.06,NW,310,0.0,4.0,78,0.00,CLR,,0.00,WeatherDisplay:10.37,2013-04-02 06:19:00,
2013-04-01 23:24:00,34.3,28.2,30.06,WNW,287,0.0,0.0,78,0.00,CLR,,0.00,WeatherDisplay:10.37,2013-04-02 06:24:00,
2013-04-01 23:29:00,33.8,27.7,30.06,West,279,0.0,0.0,78,0.00,CLR,,0.00,WeatherDisplay:10.37,2013-04-02 06:29:00,
2013-04-01 23:34:00,33.6,27.8,30.06,WNW,299,0.0,0.0,79,0.00,CLR,,0.00,WeatherDisplay:10.37,2013-04-02 06:34:00,
2013-04-01 23:39:00,33.3,27.5,30.06,NW,326,0.0,0.0,79,0.00,CLR,,0.00,WeatherDisplay:10.37,2013-04-02 06:39:00,
2013-04-01 23:44:00,33.4,27.9,30.06,NNW,328,0.0,5.0,80,0.00,CLR,,0.00,WeatherDisplay:10.37,2013-04-02 06:44:00,
2013-04-01 23:49:00,33.8,28.6,30.06,NW,307,1.0,6.0,81,0.00,CLR,,0.00,WeatherDisplay:10.37,2013-04-02 06:49:00,
2013-04-01 23:54:00,34.0,28.8,30.06,NW,310,0.0,4.0,81,0.00,CLR,,0.00,WeatherDisplay:10.37,2013-04-02 06:54:00,
2013-04-01 23:59:00,33.8,28.6,30.06,NW,319,1.0,6.0,81,0.00,CLR,,0.00,WeatherDisplay:10.37,2013-04-02 06:59:00,